[[{"header":{"parameterUnit":"m.s-1","parameterCategory":1,"la1":30.2991,"la2":30.254,"lo1":-89.0895,"lo2":-89.0444,"dy":0.0017,"dx":0.0017,"nx":28,"ny":28,"refTime":"2025-03-27T21:00:00:Z","depth":0,"parameterNumber":2,"parameterNumberName":"U-component_of_WINDS"},"data":[0,0,0,0,0,0,0,0,0,0,0,0,0,0,0,0,0,0,0,0,0,0,0,0,0,0,0,0,0,0,0,0,0,0,0,0,0,0,0,0,0,0,0,0,0,0,0,0,0,0,0,0,0,0,0,0,0,0,-4.177,-4.1771,0,-4.1815,-4.1816,-4.1816,-4.1798,-4.1796,-4.1795,-4.1794,-4.184,-4.1842,-4.1844,0,0,0,0,0,0,0,0,0,0,0,0,0,-4.1669,-4.1671,-4.177,-4.1771,-4.1771,-4.1815,-4.1816,-4.1817,-4.1798,-4.1796,-4.1795,-4.1794,-4.1839,-4.1842,-4.1845,0,0,0,0,0,0,0,0,0,0,0,0,0,-4.1714,-4.1672,-4.177,-4.1767,-4.1767,-4.1815,-4.1816,-4.1817,-4.1798,-4.1796,-4.1795,-4.1793,-4.1839,-4.1842,-4.1845,-4.1898,0,0,-4.1855,-4.1857,0,0,0,0,0,0,0,0,-4.1711,-4.1718,-4.1767,-4.1767,-4.1768,-4.1799,-4.1797,-4.1844,-4.1798,-4.1786,-4.1794,-4.1792,-4.1828,-4.1832,-4.1844,-4.19,-4.1902,-4.1856,-4.1858,-4.1859,-4.186,0,0,0,0,0,0,0,-4.1708,-4.1715,-4.1788,-4.1768,-4.1768,-4.1764,-4.1769,-4.1806,-4.1816,-4.1787,-4.1786,-4.1792,-4.1828,-4.1841,-4.1845,-4.1903,-4.1855,-4.1858,-4.1861,-4.1862,-4.2009,-4.2011,0,0,0,0,0,0,-4.1705,-4.1713,-4.1786,-4.1789,-4.1735,-4.1768,-4.1773,-4.1791,-4.1815,-4.1817,-4.1793,-4.1791,-4.1836,-4.1841,-4.1846,-4.1912,-4.1859,-4.1862,-4.1864,-4.2007,-4.201,-4.2012,0,0,0,0,0,0,-4.1703,-4.1712,-4.1785,-4.1751,-4.176,-4.1771,-4.1792,-4.1792,-4.1805,-4.182,-4.1821,-4.1804,-4.1835,-4.1842,-4.1886,-4.1913,-4.1864,-4.1867,-4.2005,-4.2008,-4.2011,-4.2042,0,0,0,0,0,0,-4.17,-4.1711,-4.173,-4.1752,-4.1762,-4.1823,-4.1793,-4.1795,-4.1811,-4.1809,-4.1831,-4.1833,-4.1834,-4.1882,-4.189,-4.1917,-4.1869,-4.2003,-4.2006,-4.201,-4.2039,-4.2046,-4.2052,0,0,0,0,0,-4.1697,-4.1736,-4.1731,-4.174,-4.1786,-4.1824,-4.183,-4.1831,-4.1814,-4.1834,-4.1844,-4.1832,-4.191,-4.1886,-4.1895,-4.1924,-4.2001,-4.2005,-4.201,-4.2036,-4.2044,-4.2051,0,0,0,0,0,0,-4.1716,-4.1739,-4.1733,-4.1781,-4.1801,-4.1821,-4.1846,-4.184,-4.1865,-4.1861,-4.1861,-4.1867,-4.1913,-4.1923,-4.1897,-4.1979,-4.1953,-4.1959,-4.1969,-4.1978,-4.1984,-4.198,-4.1872,0,0,0,0,0,-4.1727,-4.1756,-4.1774,-4.1814,-4.1825,-4.1834,-4.1851,-4.185,-4.1871,-4.1879,-4.1892,-4.1912,-4.1942,-4.1961,-4.1988,-4.2041,-4.2047,-4.2066,-4.2072,-4.2078,-4.2082,-4.2114,-4.2123,-4.2026,-4.2026,-4.2026,0,0,-4.1747,-4.1763,-4.1781,-4.1819,-4.1834,-4.1865,-4.1841,-4.1874,-4.1897,-4.1884,-4.1927,-4.1938,-4.1961,-4.2011,-4.2034,-4.2021,-4.2111,-4.2083,-4.2087,-4.2089,-4.2119,-4.2128,-4.2136,-4.2029,-4.2028,-4.2028,0,0,-4.18,-4.1815,-4.1852,-4.1869,-4.1893,-4.19,-4.1909,-4.1931,-4.1938,-4.1982,-4.1974,-4.2002,-4.2052,-4.207,-4.2085,-4.2152,-4.2142,-4.2161,-4.2194,-4.2224,-4.2232,-4.2239,-4.2263,-4.2272,-4.2166,-4.2166,-4.2166,0,-4.1822,-4.1868,-4.1871,-4.1906,-4.1924,-4.1916,-4.1953,-4.197,-4.2002,-4.2015,-4.2001,-4.2066,-4.2081,-4.2136,-4.2152,-4.2165,-4.2177,-4.2157,-4.2231,-4.2237,-4.2244,-4.2267,-4.2276,-4.2168,-4.2168,-4.2168,-4.2168,0,-4.1895,-4.1928,-4.1954,-4.1987,-4.2008,-4.2044,-4.2054,-4.2075,-4.2075,-4.2084,-4.213,-4.2149,-4.2181,-4.2195,-4.2194,-4.2251,-4.2243,-4.223,-4.2204,-4.2255,-4.2277,-4.2286,-4.2171,-4.217,-4.217,-4.2169,0,0,-4.1957,-4.1995,-4.2005,-4.2021,-4.205,-4.2075,-4.2113,-4.2146,-4.2165,-4.2189,-4.2221,-4.2266,-4.2256,-4.2273,-4.2275,-4.2302,-4.2355,-4.2286,-4.2287,-4.2298,-4.2421,-4.243,-4.244,-4.2351,-4.2353,-4.2354,-4.242,0,-4.2013,-4.2077,-4.2084,-4.2142,-4.2173,-4.2169,-4.2202,-4.2224,-4.2235,-4.2264,-4.2276,-4.2308,-4.2292,-4.2303,-4.233,-4.2343,-4.238,-4.2339,-4.2381,-4.2382,-4.2373,-4.2451,-4.246,-4.252,-4.2428,-4.2429,-4.243,0,-4.2084,-4.2112,-4.2175,-4.2203,-4.2216,-4.2245,-4.2278,-4.2306,-4.2332,-4.2339,-4.2361,-4.236,-4.2401,-4.2376,-4.2432,-4.2404,-4.2423,-4.2433,-4.2435,-4.2437,-4.2408,-4.2455,-4.2539,-4.2548,-4.2444,-4.2443,-4.2442,0,-4.2124,-4.2177,-4.2222,-4.2236,-4.227,-4.2291,-4.2306,-4.2332,-4.2352,-4.2382,-4.2396,-4.2429,-4.2447,-4.2474,-4.2483,-4.2464,-4.254,-4.2515,-4.2547,-4.2546,-4.256,-4.2559,-4.2648,-4.2575,-4.2575,-4.2574,-4.2574,0,-4.2184,-4.2222,-4.2241,-4.2268,-4.2312,-4.232,-4.2364,-4.2378,-4.2402,-4.2433,-4.2432,-4.2461,-4.2472,-4.2504,-4.2512,-4.2559,-4.2567,-4.2574,-4.2575,-4.2573,-4.2572,-4.2584,-4.2579,-4.2577,-4.2576,-4.2576,-4.2575,0,-4.2233,-4.2247,-4.2296,-4.2326,-4.2335,-4.2366,-4.2392,-4.2419,-4.2432,-4.2472,-4.2481,-4.2501,-4.2539,-4.2552,-4.2597,-4.2603,-4.2657,-4.2655,-4.2648,-4.2648,-4.2679,-4.2676,-4.2777,-4.2792,-4.271,-4.271,-4.2711,0,-4.227,-4.23,-4.2334,-4.2355,-4.2372,-4.2406,-4.2428,-4.2439,-4.2462,-4.2498,-4.2521,-4.256,-4.259,-4.2652,-4.267,-4.2706,-4.2705,-4.2738,-4.271,-4.2708,-4.2705,-4.2703,-4.2707,-4.2742,-4.2743,-4.2744,-4.2745,0,-4.2334,-4.234,-4.2372,-4.2408,-4.2435,-4.2463,-4.249,-4.2508,-4.2524,-4.2551,-4.259,-4.2614,-4.2663,-4.2701,-4.2739,-4.2756,-4.2753,-4.2754,-4.2763,-4.2761,-4.2755,-4.2759,-4.2662,-4.2751,-4.275,-4.275,-4.2749,-4.2749,-4.2378,-4.2405,-4.2434,-4.2471,-4.2494,-4.2521,-4.2549,-4.2566,-4.2599,-4.264,-4.2645,-4.2688,-4.2718,-4.2769,-4.2788,-4.2823,-4.2814,-4.2827,-4.283,-4.2833,-4.2836,-4.2752,-4.283,-4.283,-4.283,-4.283,-4.2829,0,-4.2441,-4.2461,-4.2495,-4.2535,-4.2565,-4.2562,-4.2594,-4.2618,-4.2657,-4.2685,-4.2717,-4.2764,-4.2803,-4.2826,-4.2865,-4.2889,-4.2889,-4.2899,-4.2896,-4.2901,-4.2841,-4.2829,-4.2898,-4.2898,-4.2898,-4.2898,-4.2898,-4.2898,-4.2478,-4.2525,-4.2536,-4.2595,-4.2615,-4.2657,-4.2676,-4.2702,-4.2725,-4.2778,-4.281,-4.2826,-4.2854,-4.2896,-4.2932,-4.2938,-4.2952,-4.2963,-4.2968,-4.2912,-4.2904,-4.2898,-4.2886,-4.2966,-4.2966,-4.3025,-4.3025,-4.3026]},{"header":{"parameterUnit":"m.s-1","parameterCategory":1,"la1":30.2991,"la2":30.254,"lo1":-89.0895,"lo2":-89.0444,"dy":0.0017,"dx":0.0017,"nx":28,"ny":28,"refTime":"2025-03-27T21:00:00:Z","depth":0,"parameterNumber":3,"parameterNumberName":"V-component_of_WINDS"},"data":[0,0,0,0,0,0,0,0,0,0,0,0,0,0,0,0,0,0,0,0,0,0,0,0,0,0,0,0,0,0,0,0,0,0,0,0,0,0,0,0,0,0,0,0,0,0,0,0,0,0,0,0,0,0,0,0,0,0,2.2146,2.2147,0,2.2175,2.2175,2.2175,2.2255,2.2257,2.2258,2.226,2.2283,2.2282,2.2281,0,0,0,0,0,0,0,0,0,0,0,0,0,2.2157,2.2156,2.2146,2.2147,2.2147,2.2175,2.2175,2.2176,2.2255,2.2257,2.2259,2.2261,2.2284,2.2283,2.2281,0,0,0,0,0,0,0,0,0,0,0,0,0,2.2165,2.2156,2.2146,2.219,2.2194,2.2175,2.2175,2.2176,2.2254,2.2257,2.2259,2.2262,2.2284,2.2283,2.2281,2.222,0,0,2.2277,2.2276,0,0,0,0,0,0,0,0,2.2165,2.2165,2.2183,2.2187,2.2192,2.2214,2.2188,2.219,2.2254,2.2231,2.226,2.2263,2.2258,2.2259,2.2258,2.2221,2.2222,2.2277,2.2276,2.2275,2.2275,0,0,0,0,0,0,0,2.2164,2.2164,2.2157,2.2183,2.2188,2.2207,2.2211,2.2188,2.2229,2.2233,2.2239,2.2242,2.2261,2.2259,2.2259,2.2222,2.2277,2.2275,2.2274,2.2274,2.2139,2.2136,0,0,0,0,0,0,2.2158,2.2163,2.2157,2.2158,2.2185,2.2205,2.2209,2.2204,2.223,2.2236,2.224,2.2245,2.2261,2.2261,2.226,2.2192,2.2275,2.2274,2.2273,2.2141,2.2138,2.2135,0,0,0,0,0,0,2.2158,2.2156,2.2155,2.2162,2.2164,2.2202,2.2195,2.2203,2.2202,2.2235,2.2242,2.2231,2.2263,2.2262,2.223,2.2194,2.2273,2.2272,2.2145,2.214,2.2137,2.2054,0,0,0,0,0,0,2.2158,2.2156,2.2134,2.2161,2.2163,2.2126,2.2193,2.2202,2.22,2.2208,2.2229,2.2234,2.2265,2.2232,2.2229,2.2193,2.227,2.2148,2.2143,2.2138,2.206,2.2048,2.2037,0,0,0,0,0,2.2158,2.2107,2.2132,2.2131,2.2136,2.2123,2.2124,2.2162,2.2197,2.2175,2.2196,2.2234,2.2199,2.2228,2.2225,2.2189,2.2151,2.2144,2.2138,2.2065,2.205,2.2037,0,0,0,0,0,0,2.2071,2.2112,2.214,2.2097,2.2106,2.2137,2.211,2.2144,2.2142,2.2149,2.2195,2.2198,2.216,2.2171,2.2204,2.2132,2.2181,2.2174,2.2126,2.2112,2.2101,2.2099,2.2269,0,0,0,0,0,2.2048,2.2036,2.2071,2.2029,2.2033,2.207,2.2066,2.2095,2.2106,2.211,2.2128,2.2136,2.2128,2.212,2.2114,2.2062,2.2068,2.2036,2.2024,2.2014,2.2008,2.1984,2.197,2.2115,2.2116,2.2116,0,0,2.1998,2.2019,2.2008,2.2013,2.2024,2.2009,2.2073,2.2054,2.2044,2.2106,2.2078,2.2092,2.2104,2.2063,2.2045,2.207,2.1969,2.2007,2.1999,2.1997,2.1976,2.1962,2.195,2.2111,2.2112,2.2113,0,0,2.1901,2.1915,2.1883,2.1894,2.1911,2.1936,2.1928,2.1954,2.1967,2.194,2.1987,2.1975,2.1958,2.1965,2.1966,2.1875,2.191,2.1871,2.1811,2.1786,2.1775,2.1765,2.1734,2.1722,2.1865,2.1864,2.1864,0,2.1836,2.1818,2.1862,2.1842,2.1843,2.1901,2.187,2.1877,2.1889,2.1889,2.1917,2.19,2.1911,2.1874,2.1852,2.185,2.1843,2.1869,2.1773,2.1764,2.1755,2.1726,2.1714,2.186,2.186,2.1861,2.1861,0,2.1739,2.1726,2.1698,2.1712,2.171,2.1684,2.1723,2.1716,2.1745,2.1768,2.174,2.1757,2.1756,2.1749,2.1776,2.1715,2.1731,2.1765,2.1816,2.1736,2.1709,2.1698,2.1853,2.1855,2.1856,2.1857,0,0,2.1587,2.1628,2.1617,2.1625,2.1649,2.1639,2.1616,2.1618,2.1611,2.1618,2.16,2.1586,2.1619,2.1621,2.1649,2.1628,2.1556,2.1666,2.1667,2.1646,2.1493,2.1467,2.1453,2.158,2.1578,2.1577,2.1492,0,2.1496,2.1461,2.1501,2.1457,2.1446,2.1502,2.1482,2.1494,2.1515,2.1507,2.153,2.152,2.1564,2.1566,2.1547,2.1569,2.1526,2.1575,2.1563,2.1562,2.156,2.1439,2.1411,2.1331,2.1482,2.148,2.1479,0,2.1385,2.1391,2.1346,2.1376,2.1373,2.1354,2.136,2.1353,2.1368,2.1384,2.1388,2.1423,2.1402,2.1451,2.1423,2.1456,2.1453,2.1464,2.1461,2.1462,2.1516,2.1437,2.1306,2.1294,2.1462,2.1464,2.1465,0,2.1281,2.1276,2.125,2.1255,2.1288,2.1274,2.1287,2.1305,2.1304,2.1309,2.1309,2.131,2.131,2.131,2.1345,2.1377,2.1313,2.1364,2.1326,2.1325,2.131,2.131,2.1177,2.1307,2.1307,2.1307,2.1307,0,2.1176,2.1147,2.1204,2.1188,2.1157,2.1203,2.1171,2.119,2.1206,2.1193,2.1241,2.1228,2.1275,2.1267,2.1294,2.1268,2.1267,2.128,2.1288,2.1276,2.1275,2.1275,2.1282,2.1304,2.1305,2.1305,2.1306,0,2.1054,2.1091,2.1067,2.1101,2.1109,2.1085,2.1114,2.11,2.1125,2.1109,2.1108,2.1146,2.114,2.1175,2.1174,2.1192,2.1153,2.1169,2.1148,2.1154,2.1114,2.1118,2.0977,2.0961,2.1099,2.1098,2.1097,0,2.0985,2.0965,2.0998,2.0995,2.1006,2.0999,2.1,2.1044,2.1042,2.106,2.1043,2.1042,2.1043,2.103,2.1056,2.1056,2.1074,2.1025,2.1074,2.1064,2.1075,2.1076,2.1075,2.1014,2.1013,2.1011,2.101,0,2.0859,2.088,2.0879,2.0886,2.0886,2.0892,2.0902,2.0896,2.0944,2.094,2.0936,2.0936,2.0937,2.0935,2.0941,2.0953,2.0989,2.0995,2.0986,2.0974,2.0964,2.097,2.1121,2.0997,2.0999,2.1,2.1,2.1001,2.0763,2.0748,2.077,2.0769,2.0782,2.079,2.078,2.0805,2.0802,2.0808,2.0834,2.0825,2.0842,2.0855,2.0864,2.0857,2.088,2.0867,2.0864,2.086,2.0854,2.0964,2.0858,2.0858,2.0859,2.0859,2.0859,0,2.0641,2.0659,2.0657,2.0671,2.067,2.0707,2.072,2.0716,2.0709,2.0723,2.0724,2.0719,2.0718,2.0745,2.0748,2.0737,2.0754,2.0736,2.0737,2.074,2.0832,2.084,2.0722,2.0722,2.0723,2.0723,2.0723,2.0723,2.0578,2.0556,2.0579,2.0563,2.0581,2.0575,2.0579,2.0588,2.0599,2.0593,2.0593,2.0612,2.0632,2.0636,2.0637,2.0645,2.0644,2.062,2.0634,2.072,2.0733,2.0746,2.0754,2.0619,2.0619,2.0543,2.0542,2.0541]}]]